Location: �terpigny
(49.8910°N, 2.9249°E)
Time: 12:43:29
(UTC+00:00)

RS-44 - Pass Details

Date: 01 July 2022
Orbit: 1175 x 1510 km, 82.5° (Epoch: 12 August)

Event Time Altitude Azimuth Distance (km) Brightness Sun altitude
Rises 23:24:47 0° 270° (W) 4,476 ? -16.8°
Reaches altitude 10° 23:30:16 10° 299° (WNW) 3,578 ? -16.9°
Maximum altitude 23:33:21 12° 321° (NW) 3,448 ? -16.9°
Drops below altitude 10° 23:36:29 10° 342° (NNW) 3,644 ? -17.0°
Sets 23:42:16 0° 12° (NNE) 4,660 ? -17.0°
